Location: B?ogocice
(50.2413°N, 20.2361°E)
Time: 23:37:21
(UTC+00:00)

ASTEX 1 - Pass Details

Date: 15 June 2024
Orbit: 717 x 737 km, 92.7° (Epoch: 18 July)

Event Time Altitude Azimuth Distance (km) Brightness Sun altitude
Exits shadow 00:34:46 - 152° (SSE) 3,094 6.3 -12.1°
Reaches altitude 10° 00:37:04 10° 146° (SE) 2,202 5.6 -12.0°
Maximum altitude 00:41:38 43° 76° (ENE) 1,010 4.5 -11.6°
Drops below altitude 10° 00:46:14 10° 6° (N) 2,215 7.1 -11.3°
Sets 00:48:37 0° 360° (N) 3,140 7.8 -11.1°
